Location: Boiro
(42.6475°N, 8.8834°W)
Time: 22:47:00
(UTC+01:00)

Tiros 1 - Pass Details

Date: 12 December 2021
Orbit: 629 x 664 km, 48.4° (Epoch: 18 January)

Event Time Altitude Azimuth Distance (km) Brightness Sun altitude
Rises 16:21:51 0° 220° (SW) 2,902 12.6 13.2°
Reaches altitude 10° 16:24:14 10° 213° (SSW) 1,997 12.4 12.9°
Maximum altitude 16:28:34 42° 143° (SE) 900 8.2 12.4°
Drops below altitude 10° 16:32:55 10° 73° (ENE) 2,013 9.2 11.8°
Sets 16:35:20 0° 66° (ENE) 2,928 9.9 11.5°
